SWA2545 KPHL-KBNA

Flight info

Callsign SWA2545
Flight time 1h 40m
Altitude 38000
Route MXE PENSY J110 FLIRT J6 HVQ Q68 YOCKY CUTRR PASLY5
Aircraft B38M/M-VGDW/C

Departure

Time 2026-05-04 00:25
Airport Philadelphia International Airport (KPHL)

Arrival

Time 2026-05-04 02:05
Airport Nashville International Airport (KBNA)
Time Latitude Longitude Altitude Speed Heading
2026-05-04 00:00 39.87687 -75.23679 32 ft 0 kts 31°
2026-05-04 00:13 39.87677 -75.23686 28 ft 3 kts 31°
2026-05-04 00:13 39.87661 -75.23699 28 ft 3 kts 31°
2026-05-04 00:13 39.87646 -75.23711 28 ft 3 kts 31°
2026-05-04 00:14 39.87641 -75.23714 28 ft 0 kts 31°
2026-05-04 00:20 39.87642 -75.23713 28 ft 0 kts 45°
2026-05-04 00:20 39.87641 -75.23693 28 ft 7 kts 101°
2026-05-04 00:21 39.87630 -75.23582 28 ft 17 kts 66°
2026-05-04 00:21 39.87739 -75.23501 28 ft 20 kts 19°
2026-05-04 00:21 39.87732 -75.23374 28 ft 19 kts 155°
2026-05-04 00:21 39.87600 -75.23309 28 ft 21 kts 158°
2026-05-04 00:22 39.87455 -75.23238 28 ft 23 kts 160°
2026-05-04 00:22 39.87297 -75.23166 28 ft 25 kts 161°
2026-05-04 00:22 39.87151 -75.23113 28 ft 14 kts 207°
2026-05-04 00:22 39.87076 -75.23212 28 ft 19 kts 232°
2026-05-04 00:23 39.87019 -75.23382 28 ft 14 kts 243°
2026-05-04 00:23 39.86965 -75.23412 28 ft 3 kts 169°
2026-05-04 00:23 39.86923 -75.23406 28 ft 10 kts 191°
2026-05-04 00:23 39.86885 -75.23494 28 ft 13 kts 255°
2026-05-04 00:24 39.86849 -75.23672 28 ft 41 kts 255°
2026-05-04 00:24 39.86714 -75.24349 28 ft 111 kts 255°
2026-05-04 00:24 39.86477 -75.25568 61 ft 161 kts 256°
2026-05-04 00:24 39.86187 -75.27084 522 ft 180 kts 257°
2026-05-04 00:25 39.85896 -75.28631 1634 ft 169 kts 257°
2026-05-04 00:25 39.85791 -75.30226 2104 ft 191 kts 284°
2026-05-04 00:25 39.86519 -75.31773 2502 ft 220 kts 319°
2026-05-04 00:25 39.87912 -75.32654 3601 ft 222 kts 338°
2026-05-04 00:26 39.89412 -75.33304 4472 ft 230 kts 338°
2026-05-04 00:26 39.90987 -75.33985 5155 ft 248 kts 338°
2026-05-04 00:26 39.92634 -75.34701 5966 ft 253 kts 337°
2026-05-04 00:26 39.94088 -75.35884 6953 ft 247 kts 310°
2026-05-04 00:27 39.94954 -75.37826 7777 ft 252 kts 290°
2026-05-04 00:27 39.95266 -75.40100 8633 ft 260 kts 273°
2026-05-04 00:27 39.94976 -75.42467 9476 ft 269 kts 262°
2026-05-04 00:27 39.94658 -75.44901 10196 ft 274 kts 265°
2026-05-04 00:28 39.94350 -75.47425 10656 ft 291 kts 265°
2026-05-04 00:28 39.94020 -75.50122 10972 ft 312 kts 264°
2026-05-04 00:28 39.93662 -75.52999 11323 ft 329 kts 264°
2026-05-04 00:28 39.93281 -75.55988 11883 ft 340 kts 263°
2026-05-04 00:29 39.92883 -75.59022 12735 ft 340 kts 263°
2026-05-04 00:29 39.92476 -75.62077 13529 ft 344 kts 263°
2026-05-04 00:29 39.92063 -75.65160 14286 ft 347 kts 263°
2026-05-04 00:29 39.91789 -75.68277 15066 ft 346 kts 272°
2026-05-04 00:30 39.91790 -75.71424 15844 ft 348 kts 271°
2026-05-04 00:30 39.91750 -75.74586 16616 ft 350 kts 270°
2026-05-04 00:30 39.91696 -75.77728 17377 ft 353 kts 270°
2026-05-04 00:30 39.91631 -75.80935 18141 ft 356 kts 270°
2026-05-04 00:31 39.91559 -75.84174 18803 ft 358 kts 270°
2026-05-04 00:31 39.91484 -75.87430 19453 ft 361 kts 270°
2026-05-04 00:31 39.91407 -75.90707 20104 ft 362 kts 270°
2026-05-04 00:31 39.91328 -75.94006 20741 ft 365 kts 270°
2026-05-04 00:32 39.91247 -75.97316 21361 ft 367 kts 270°
2026-05-04 00:32 39.91166 -76.00647 21968 ft 369 kts 270°
2026-05-04 00:32 39.91082 -76.04006 22571 ft 371 kts 270°
2026-05-04 00:32 39.90997 -76.07376 23185 ft 373 kts 270°
2026-05-04 00:33 39.90911 -76.10766 23732 ft 376 kts 270°
2026-05-04 00:33 39.90742 -76.17557 24718 ft 379 kts 271°
2026-05-04 00:33 39.90888 -76.20983 25187 ft 379 kts 275°
2026-05-04 00:34 39.91057 -76.24420 25665 ft 381 kts 275°
2026-05-04 00:34 39.91210 -76.27871 26143 ft 382 kts 275°
2026-05-04 00:34 39.91356 -76.31339 26610 ft 384 kts 275°
2026-05-04 00:34 39.91497 -76.34821 27061 ft 385 kts 275°
2026-05-04 00:35 39.91637 -76.38312 27516 ft 387 kts 275°
2026-05-04 00:35 39.91775 -76.41821 27938 ft 388 kts 275°
2026-05-04 00:35 39.91913 -76.45337 28378 ft 390 kts 275°
2026-05-04 00:35 39.92051 -76.48876 28786 ft 392 kts 275°
2026-05-04 00:36 39.92188 -76.52425 29228 ft 392 kts 275°
2026-05-04 00:36 39.92323 -76.55965 29813 ft 389 kts 275°
2026-05-04 00:36 39.92456 -76.59473 30365 ft 386 kts 275°
2026-05-04 00:36 39.92587 -76.62969 30769 ft 386 kts 275°
2026-05-04 00:37 39.92716 -76.66421 31106 ft 387 kts 274°
2026-05-04 00:37 39.92460 -76.69931 31449 ft 393 kts 258°
2026-05-04 00:37 39.91385 -76.73246 31832 ft 402 kts 246°
2026-05-04 00:37 39.89989 -76.76402 32179 ft 403 kts 245°
2026-05-04 00:38 39.88564 -76.79562 32546 ft 404 kts 245°
2026-05-04 00:38 39.87122 -76.82705 32939 ft 404 kts 244°
2026-05-04 00:38 39.85669 -76.85833 33332 ft 404 kts 244°
2026-05-04 00:38 39.84207 -76.88961 33718 ft 404 kts 243°
2026-05-04 00:39 39.82741 -76.92087 34083 ft 404 kts 243°
2026-05-04 00:39 39.81279 -76.95203 34373 ft 404 kts 243°
2026-05-04 00:39 39.79814 -76.98321 34656 ft 405 kts 243°
2026-05-04 00:39 39.78341 -77.01450 34942 ft 405 kts 243°
2026-05-04 00:40 39.76869 -77.04575 35231 ft 406 kts 243°
2026-05-04 00:40 39.75391 -77.07710 35512 ft 406 kts 243°
2026-05-04 00:40 39.73914 -77.10839 35798 ft 407 kts 243°
2026-05-04 00:40 39.72434 -77.13972 36074 ft 407 kts 242°
2026-05-04 00:41 39.70951 -77.17108 36352 ft 407 kts 242°
2026-05-04 00:41 39.69488 -77.20201 36621 ft 408 kts 242°
2026-05-04 00:41 39.67999 -77.23341 36884 ft 408 kts 242°
2026-05-04 00:41 39.66509 -77.26483 37138 ft 408 kts 242°
2026-05-04 00:42 39.65020 -77.29617 37392 ft 408 kts 242°
2026-05-04 00:42 39.63531 -77.32751 37644 ft 408 kts 242°
2026-05-04 00:42 39.62033 -77.35899 37889 ft 409 kts 242°
2026-05-04 00:42 39.60536 -77.39042 38039 ft 410 kts 242°
2026-05-04 00:43 39.59039 -77.42184 38035 ft 409 kts 242°
2026-05-04 00:43 39.56068 -77.48406 38032 ft 407 kts 242°
2026-05-04 00:44 39.53085 -77.54642 38029 ft 406 kts 242°
2026-05-04 00:44 39.50588 -77.59852 38021 ft 406 kts 242°
2026-05-04 00:45 39.47608 -77.66059 38029 ft 406 kts 242°
2026-05-04 00:45 39.44648 -77.72212 38021 ft 405 kts 242°
2026-05-04 00:46 39.41669 -77.78394 38012 ft 404 kts 242°
2026-05-04 00:46 39.38714 -77.84574 38004 ft 402 kts 246°
2026-05-04 00:47 39.36229 -77.91016 38018 ft 400 kts 246°
2026-05-04 00:47 39.33696 -77.97421 38019 ft 400 kts 246°
2026-05-04 00:48 39.31148 -78.03814 38018 ft 400 kts 246°
2026-05-04 00:48 39.28615 -78.10150 38013 ft 399 kts 246°
2026-05-04 00:49 39.26062 -78.16523 38026 ft 399 kts 246°
2026-05-04 00:49 39.23508 -78.22886 38020 ft 398 kts 246°
2026-05-04 00:50 39.20956 -78.29230 38023 ft 398 kts 246°
2026-05-04 00:50 39.18421 -78.35521 38018 ft 397 kts 246°
2026-05-04 00:51 39.15868 -78.41840 38026 ft 397 kts 246°
2026-05-04 00:51 39.13319 -78.48139 38023 ft 396 kts 246°
2026-05-04 00:52 39.10773 -78.54416 38025 ft 395 kts 246°
2026-05-04 00:52 39.08220 -78.60698 38026 ft 395 kts 246°
2026-05-04 00:53 39.05670 -78.66959 38037 ft 395 kts 246°
2026-05-04 00:53 39.03115 -78.73222 38040 ft 395 kts 246°
2026-05-04 00:54 39.00554 -78.79487 38050 ft 395 kts 246°
2026-05-04 00:54 38.98011 -78.85698 38033 ft 394 kts 246°
2026-05-04 00:55 38.95455 -78.91943 38041 ft 395 kts 246°
2026-05-04 00:55 38.92900 -78.98174 38043 ft 394 kts 246°
2026-05-04 00:56 38.90345 -79.04395 38041 ft 394 kts 246°
2026-05-04 00:56 38.87784 -79.10613 38067 ft 393 kts 246°
2026-05-04 00:57 38.85227 -79.16814 38049 ft 393 kts 246°
2026-05-04 00:57 38.83475 -79.23340 38061 ft 388 kts 257°
2026-05-04 00:58 38.82202 -79.30065 38070 ft 388 kts 258°
2026-05-04 00:58 38.80974 -79.36806 38077 ft 388 kts 258°
2026-05-04 00:59 38.79755 -79.43551 38063 ft 387 kts 258°
2026-05-04 00:59 38.78536 -79.50284 38081 ft 388 kts 258°
2026-05-04 01:00 38.77320 -79.56974 38057 ft 387 kts 258°
2026-05-04 01:00 38.76088 -79.63734 38065 ft 389 kts 258°
2026-05-04 01:01 38.74854 -79.70477 38058 ft 388 kts 258°
2026-05-04 01:01 38.73617 -79.77212 38062 ft 388 kts 258°
2026-05-04 01:02 38.72375 -79.83955 38063 ft 389 kts 258°
2026-05-04 01:02 38.71139 -79.90642 38066 ft 389 kts 258°
2026-05-04 01:03 38.69891 -79.97372 38069 ft 389 kts 258°
2026-05-04 01:03 38.68636 -80.04113 38078 ft 389 kts 258°
2026-05-04 01:04 38.67375 -80.10864 38090 ft 390 kts 258°
2026-05-04 01:04 38.66109 -80.17620 38083 ft 390 kts 258°
2026-05-04 01:05 38.64844 -80.24343 38083 ft 391 kts 258°
2026-05-04 01:05 38.63567 -80.31107 38082 ft 391 kts 257°
2026-05-04 01:06 38.62285 -80.37876 38077 ft 391 kts 257°
2026-05-04 01:06 38.61001 -80.44634 38033 ft 390 kts 257°
2026-05-04 01:07 38.59723 -80.51347 38074 ft 392 kts 257°
2026-05-04 01:07 38.58425 -80.58118 38066 ft 392 kts 257°
2026-05-04 01:08 38.57125 -80.64873 38045 ft 391 kts 257°
2026-05-04 01:08 38.55829 -80.71618 38062 ft 391 kts 258°
2026-05-04 01:09 38.54525 -80.78367 38063 ft 390 kts 257°
2026-05-04 01:09 38.53224 -80.85074 38061 ft 390 kts 258°
2026-05-04 01:10 38.51915 -80.91806 38056 ft 390 kts 257°
2026-05-04 01:10 38.50601 -80.98539 38054 ft 391 kts 257°
2026-05-04 01:11 38.49281 -81.05277 38051 ft 390 kts 257°
2026-05-04 01:11 38.47969 -81.11957 38052 ft 390 kts 257°
2026-05-04 01:12 38.46642 -81.18688 38053 ft 391 kts 257°
2026-05-04 01:12 38.45313 -81.25408 38047 ft 391 kts 257°
2026-05-04 01:13 38.43979 -81.32131 38055 ft 390 kts 257°
2026-05-04 01:13 38.42650 -81.38810 38058 ft 391 kts 257°
2026-05-04 01:14 38.41306 -81.45539 38036 ft 391 kts 257°
2026-05-04 01:14 38.39957 -81.52274 38044 ft 391 kts 257°
2026-05-04 01:15 38.38605 -81.58997 38057 ft 391 kts 257°
2026-05-04 01:15 38.37250 -81.65726 38051 ft 392 kts 257°
2026-05-04 01:16 38.35897 -81.72422 38054 ft 392 kts 257°
2026-05-04 01:16 38.34311 -81.79092 38057 ft 394 kts 252°
2026-05-04 01:17 38.32443 -81.85664 38048 ft 395 kts 253°
2026-05-04 01:17 38.30602 -81.92272 38049 ft 395 kts 253°
2026-05-04 01:18 38.28766 -81.98872 38042 ft 396 kts 253°
2026-05-04 01:18 38.26934 -82.05444 38042 ft 396 kts 253°
2026-05-04 01:19 38.25088 -82.12046 38047 ft 395 kts 253°
2026-05-04 01:19 38.23242 -82.18636 38045 ft 395 kts 253°
2026-05-04 01:20 38.21394 -82.25218 38041 ft 395 kts 253°
2026-05-04 01:20 38.19552 -82.31759 38040 ft 395 kts 252°
2026-05-04 01:21 38.17676 -82.38337 38042 ft 395 kts 253°
2026-05-04 01:21 38.15800 -82.44904 38042 ft 395 kts 252°
2026-05-04 01:22 38.13924 -82.51458 38037 ft 395 kts 253°
2026-05-04 01:22 38.12040 -82.58021 38040 ft 395 kts 252°
2026-05-04 01:23 38.10163 -82.64544 38037 ft 395 kts 253°
2026-05-04 01:23 38.08274 -82.71095 38036 ft 395 kts 252°
2026-05-04 01:24 38.06379 -82.77648 38043 ft 395 kts 253°
2026-05-04 01:24 38.04481 -82.84200 38045 ft 395 kts 252°
2026-05-04 01:25 38.02578 -82.90747 38045 ft 395 kts 252°
2026-05-04 01:25 38.00687 -82.97241 38048 ft 395 kts 252°
2026-05-04 01:26 37.98780 -83.03775 38042 ft 395 kts 252°
2026-05-04 01:26 37.96866 -83.10316 38047 ft 395 kts 252°
2026-05-04 01:27 37.94950 -83.16845 38046 ft 395 kts 252°
2026-05-04 01:27 37.93032 -83.23371 38047 ft 395 kts 252°
2026-05-04 01:28 37.91109 -83.29894 38049 ft 395 kts 252°
2026-05-04 01:28 37.89193 -83.36378 38048 ft 395 kts 252°
2026-05-04 01:29 37.87262 -83.42898 38050 ft 395 kts 252°
2026-05-04 01:29 37.85325 -83.49422 38047 ft 395 kts 252°
2026-05-04 01:30 37.83715 -83.54837 38053 ft 396 kts 252°
2026-05-04 01:30 37.81770 -83.61360 38053 ft 396 kts 252°
2026-05-04 01:31 37.79826 -83.67862 38053 ft 395 kts 252°
2026-05-04 01:31 37.77878 -83.74366 38053 ft 395 kts 252°
2026-05-04 01:32 37.75938 -83.80827 38055 ft 395 kts 252°
2026-05-04 01:32 37.73981 -83.87330 38051 ft 396 kts 252°
2026-05-04 01:33 37.72018 -83.93837 38043 ft 396 kts 252°
2026-05-04 01:33 37.70051 -84.00342 38060 ft 396 kts 252°
2026-05-04 01:34 37.68096 -84.06798 38061 ft 396 kts 252°
2026-05-04 01:34 37.66090 -84.13285 38060 ft 398 kts 248°
2026-05-04 01:34 37.64515 -84.16185 38063 ft 407 kts 232°
2026-05-04 01:35 37.62441 -84.18655 38066 ft 412 kts 229°
2026-05-04 01:35 37.58166 -84.23512 38071 ft 414 kts 228°
2026-05-04 01:36 37.53822 -84.28306 38070 ft 415 kts 227°
2026-05-04 01:36 37.49483 -84.33048 38068 ft 415 kts 227°
2026-05-04 01:37 37.45113 -84.37810 38074 ft 415 kts 227°
2026-05-04 01:37 37.40743 -84.42566 38063 ft 415 kts 227°
2026-05-04 01:38 37.36365 -84.47323 38063 ft 416 kts 227°
2026-05-04 01:38 37.31979 -84.52079 38058 ft 416 kts 227°
2026-05-04 01:39 37.27594 -84.56828 38056 ft 416 kts 227°
2026-05-04 01:39 37.23234 -84.61542 38056 ft 416 kts 227°
2026-05-04 01:40 37.18834 -84.66291 38054 ft 417 kts 227°
2026-05-04 01:40 37.14434 -84.71034 38055 ft 417 kts 227°
2026-05-04 01:41 37.10021 -84.75782 38050 ft 417 kts 227°
2026-05-04 01:41 37.05611 -84.80521 37533 ft 416 kts 227°
2026-05-04 01:41 37.03452 -84.82923 36688 ft 413 kts 234°
2026-05-04 01:42 37.01782 -84.85795 35814 ft 407 kts 245°
2026-05-04 01:42 37.00268 -84.88793 35164 ft 407 kts 244°
2026-05-04 01:42 36.98770 -84.91785 34508 ft 406 kts 245°
2026-05-04 01:42 36.97294 -84.94775 33688 ft 409 kts 245°
2026-05-04 01:43 36.95799 -84.97828 32771 ft 412 kts 245°
2026-05-04 01:43 36.94311 -85.00887 31955 ft 413 kts 245°
2026-05-04 01:43 36.92813 -85.03954 31164 ft 413 kts 245°
2026-05-04 01:43 36.91312 -85.07029 30311 ft 415 kts 245°
2026-05-04 01:44 36.89802 -85.10121 29291 ft 419 kts 244°
2026-05-04 01:44 36.88282 -85.13234 28308 ft 420 kts 244°
2026-05-04 01:44 36.86775 -85.16316 27503 ft 419 kts 244°
2026-05-04 01:44 36.85260 -85.19412 26802 ft 421 kts 244°
2026-05-04 01:45 36.83719 -85.22560 26059 ft 426 kts 243°
2026-05-04 01:45 36.82168 -85.25722 25345 ft 428 kts 243°
2026-05-04 01:45 36.79064 -85.32043 23929 ft 423 kts 243°
2026-05-04 01:46 36.77527 -85.35170 23124 ft 421 kts 242°
2026-05-04 01:46 36.75998 -85.38278 22365 ft 418 kts 242°
2026-05-04 01:46 36.74517 -85.41363 21874 ft 412 kts 244°
2026-05-04 01:46 36.73074 -85.44451 21441 ft 413 kts 243°
2026-05-04 01:47 36.71639 -85.47504 21098 ft 412 kts 243°
2026-05-04 01:47 36.70192 -85.50575 20712 ft 410 kts 243°
2026-05-04 01:47 36.68749 -85.53636 20319 ft 408 kts 243°
2026-05-04 01:47 36.67317 -85.56667 19935 ft 401 kts 243°
2026-05-04 01:48 36.65929 -85.59605 19575 ft 383 kts 243°
2026-05-04 01:48 36.64611 -85.62392 19219 ft 364 kts 243°
2026-05-04 01:48 36.63351 -85.65053 18871 ft 352 kts 243°
2026-05-04 01:48 36.62109 -85.67676 18517 ft 349 kts 243°
2026-05-04 01:49 36.60883 -85.70263 18124 ft 345 kts 243°
2026-05-04 01:49 36.59671 -85.72817 17776 ft 341 kts 244°
2026-05-04 01:49 36.58468 -85.75353 17391 ft 338 kts 244°
2026-05-04 01:49 36.57268 -85.77877 17039 ft 339 kts 244°
2026-05-04 01:50 36.56085 -85.80367 16672 ft 338 kts 244°
2026-05-04 01:50 36.54888 -85.82887 16340 ft 337 kts 244°
2026-05-04 01:50 36.53700 -85.85388 16029 ft 336 kts 244°
2026-05-04 01:50 36.52509 -85.87892 15713 ft 335 kts 244°
2026-05-04 01:51 36.51325 -85.90379 15392 ft 334 kts 244°
2026-05-04 01:51 36.50143 -85.92861 15077 ft 333 kts 244°
2026-05-04 01:51 36.48967 -85.95328 14751 ft 331 kts 245°
2026-05-04 01:51 36.47793 -85.97789 14334 ft 332 kts 245°
2026-05-04 01:52 36.46606 -86.00274 13616 ft 334 kts 245°
2026-05-04 01:52 36.45432 -86.02730 12955 ft 327 kts 245°
2026-05-04 01:52 36.44283 -86.05131 12333 ft 320 kts 244°
2026-05-04 01:52 36.43167 -86.07463 11683 ft 316 kts 244°
2026-05-04 01:53 36.42054 -86.09785 11111 ft 310 kts 244°
2026-05-04 01:53 36.40960 -86.12068 10540 ft 304 kts 244°
2026-05-04 01:53 36.39958 -86.14343 9943 ft 296 kts 254°
2026-05-04 01:53 36.39715 -86.16811 9281 ft 286 kts 279°
2026-05-04 01:54 36.40223 -86.19152 8791 ft 277 kts 288°
2026-05-04 01:54 36.40783 -86.21408 8304 ft 270 kts 288°
2026-05-04 01:54 36.41341 -86.23614 7809 ft 266 kts 288°
2026-05-04 01:54 36.41899 -86.25795 7329 ft 264 kts 287°
2026-05-04 01:55 36.42448 -86.27960 6803 ft 261 kts 283°
2026-05-04 01:55 36.42492 -86.30188 6330 ft 258 kts 260°
2026-05-04 01:55 36.42050 -86.32321 6018 ft 248 kts 255°
2026-05-04 01:55 36.41598 -86.34305 6042 ft 230 kts 255°
2026-05-04 01:56 36.41177 -86.36151 6007 ft 213 kts 255°
2026-05-04 01:56 36.40784 -86.37872 5834 ft 202 kts 255°
2026-05-04 01:56 36.40412 -86.39511 5642 ft 192 kts 256°
2026-05-04 01:56 36.40061 -86.41057 5483 ft 185 kts 256°
2026-05-04 01:57 36.39722 -86.42558 5427 ft 176 kts 256°
2026-05-04 01:57 36.39396 -86.44012 5229 ft 175 kts 255°
2026-05-04 01:57 36.39065 -86.45478 5079 ft 177 kts 255°
2026-05-04 01:57 36.38746 -86.46979 4801 ft 182 kts 256°
2026-05-04 01:58 36.38417 -86.48519 4534 ft 187 kts 255°
2026-05-04 01:58 36.38083 -86.50114 4263 ft 193 kts 255°
2026-05-04 01:58 36.37756 -86.51747 4056 ft 194 kts 255°
2026-05-04 01:58 36.37448 -86.53352 3990 ft 190 kts 256°
2026-05-04 01:59 36.36932 -86.54783 3947 ft 179 kts 231°
2026-05-04 01:59 36.36076 -86.55844 3958 ft 177 kts 225°
2026-05-04 01:59 36.35089 -86.56751 4067 ft 175 kts 213°
2026-05-04 01:59 36.33979 -86.57367 4082 ft 172 kts 203°
2026-05-04 02:00 36.32883 -86.57863 4085 ft 165 kts 206°
2026-05-04 02:00 36.31824 -86.58386 4015 ft 163 kts 206°
2026-05-04 02:00 36.30766 -86.58885 3979 ft 162 kts 204°
2026-05-04 02:00 36.29698 -86.59351 3899 ft 163 kts 202°
2026-05-04 02:01 36.28622 -86.59798 3730 ft 164 kts 202°
2026-05-04 02:01 36.27530 -86.60243 3470 ft 164 kts 201°
2026-05-04 02:01 36.26462 -86.60672 3313 ft 157 kts 201°
2026-05-04 02:01 36.25452 -86.61057 3180 ft 150 kts 202°
2026-05-04 02:02 36.24461 -86.61464 2898 ft 146 kts 201°
2026-05-04 02:02 36.23495 -86.61863 2751 ft 147 kts 201°
2026-05-04 02:02 36.22530 -86.62242 2569 ft 144 kts 201°
2026-05-04 02:02 36.21570 -86.62630 2372 ft 148 kts 201°
2026-05-04 02:03 36.20612 -86.63008 2187 ft 144 kts 199°
2026-05-04 02:03 36.19658 -86.63396 1985 ft 145 kts 202°
2026-05-04 02:03 36.18697 -86.63783 1778 ft 145 kts 201°
2026-05-04 02:03 36.17739 -86.64174 1594 ft 144 kts 200°
2026-05-04 02:04 36.16816 -86.64542 1344 ft 135 kts 199°
2026-05-04 02:04 36.15867 -86.64928 1198 ft 153 kts 198°
2026-05-04 02:04 36.14857 -86.65325 937 ft 147 kts 199°
2026-05-04 02:04 36.13916 -86.65711 728 ft 140 kts 198°
2026-05-04 02:05 36.13001 -86.66075 567 ft 131 kts 198°
2026-05-04 02:05 36.12254 -86.66375 573 ft 91 kts 198°
2026-05-04 02:05 36.11885 -86.66524 582 ft 22 kts 198°
2026-05-04 02:05 36.11844 -86.66613 583 ft 9 kts 283°
2026-05-04 02:06 36.11910 -86.66657 581 ft 16 kts 10°
2026-05-04 02:06 36.12043 -86.66618 578 ft 22 kts 14°
2026-05-04 02:06 36.12173 -86.66551 571 ft 16 kts 20°
2026-05-04 02:06 36.12278 -86.66550 569 ft 15 kts 310°
2026-05-04 02:07 36.12315 -86.66670 573 ft 16 kts 288°
2026-05-04 02:07 36.12356 -86.66825 576 ft 22 kts 291°
2026-05-04 02:07 36.12463 -86.66950 579 ft 21 kts 354°
2026-05-04 02:07 36.12575 -86.66896 576 ft 17 kts 28°
2026-05-04 02:08 36.12674 -86.66822 572 ft 18 kts 31°
2026-05-04 02:08 36.12732 -86.66814 573 ft 3 kts 333°
2026-05-04 02:08 36.12751 -86.66836 573 ft 5 kts 316°
2026-05-04 02:08 36.12765 -86.66854 573 ft 0 kts 313°